This demonstration page uses our WeatherBlox Daily Observations layout. Learn more.

Left ArrowRight Arrow

31.84235, -102.49876

Hourly Observations for May 4, 2015

Temp ( °F °C ) Dew Point ( °F °C ) Humidity (%) Winds ( mph kmh ) Pressure ( in mb ) Visibility ( mi km ) Precip ( " mm )
12:53 am 00:53 Clear 71 21.7 55 12.8 57 57 S 16 26 29.78 1009 10 16 0.00 0.00
1:53 am 01:53 Clear 70 21.1 55 12.8 59 59 S 20 31 29.79 1009 10 16 0.00 0.00
2:53 am 02:53 Clear 69 20.6 55 12.8 61 61 S 14 22 29.81 1009 10 16 0.00 0.00
3:53 am 03:53 Clear 67 19.4 56 13.3 68 68 SE 9 15 29.78 1008 10 16 0.00 0.00
4:53 am 04:53 Clear 66 18.9 56 13.3 70 70 SSE 14 22 29.77 1008 10 16 0.00 0.00
5:53 am 05:53 Clear 65 18.3 57 13.9 76 76 SE 13 20 29.78 1008 10 16 0.00 0.00
6:53 am 06:53 Mostly Clear 66 18.9 58 14.4 75 75 SSE 9 15 29.81 1009 10 16 0.00 0.00
7:09 am 07:09 Mostly Cloudy 66 18.9 58 14.4 75 75 SSE 7 11 29.83 1010 10 16 0.00 0.00
7:53 am 07:53 Cloudy 67 19.4 59 15 76 76 SE 3 6 29.85 1011 10 16 0.00 0.00
8:53 am 08:53 Cloudy 69 20.6 60 15.6 73 73 S 8 13 29.90 1012 9 14 0.00 0.00
9:21 am 09:21 Mostly Cloudy 70 21.1 60 15.6 71 71 S 9 15 29.91 1013 9 14 0.00 0.00
9:53 am 09:53 Mostly Cloudy 70 21.1 60 15.6 71 71 SSE 14 22 29.90 1012 8 13 0.00 0.00
10:20 am 10:20 Mostly Cloudy 70 21.1 60 15.6 71 71 SSE 13 20 29.91 1013 7 11 0.00 0.00
10:32 am 10:32 Cloudy 71 21.7 60 15.6 68 68 SSE 13 20 29.88 1012 8 13 0.00 0.00
10:53 am 10:53 Cloudy 72 22.2 60 15.6 66 66 S 15 24 29.90 1013 9 14 0.00 0.00
11:53 am 11:53 Mostly Cloudy 76 24.4 58 14.4 54 54 SSE 22 35 29.89 1012 10 16 0.00 0.00
12:53 pm 12:53 Mostly Cloudy 77 25 58 14.4 52 52 SSE 24 39 29.88 1012 10 16 0.00 0.00
1:53 pm 13:53 Mostly Cloudy 79 26.1 58 14.4 49 49 S 22 35 29.86 1011 10 16 0.00 0.00
2:53 pm 14:53 Partly Cloudy 80 26.7 57 13.9 45 45 S 20 31 29.82 1010 10 16 0.00 0.00
3:53 pm 15:53 Mostly Sunny 81 27.2 57 13.9 44 44 SSE 25 41 29.79 1009 10 16 0.00 0.00
4:53 pm 16:53 Partly Cloudy 81 27.2 56 13.3 42 42 SSE 26 43 29.75 1007 10 16 0.00 0.00
5:53 pm 17:53 Mostly Sunny 78 25.6 57 13.9 48 48 SSE 21 33 29.75 1007 10 16 0.00 0.00
6:53 pm 18:53 Mostly Sunny 76 24.4 57 13.9 52 52 SSE 25 41 29.73 1007 10 16 0.00 0.00
7:53 pm 19:53 Mostly Cloudy 75 23.9 58 14.4 55 55 S 22 35 29.73 1007 10 16 0.00 0.00
8:53 pm 20:53 Mostly Cloudy 73 22.8 58 14.4 59 59 SSE 29 46 29.75 1008 10 16 0.00 0.00
9:53 pm 21:53 Cloudy 72 22.2 60 15.6 66 66 SSE 18 30 29.75 1008 10 16 0.00 0.00
10:32 pm 22:32 Cloudy with Light Rain 70 21.1 61 16.1 73 73 S 13 20 29.77 1008 9 14 0.00 0.03
10:53 pm 22:53 Cloudy with Light Rain 69 20.6 62 16.7 78 78 S 14 22 29.79 1009 8 13 0.02 0.51
11:09 pm 23:09 Cloudy with Nearby Thunderstorms 68 20 62 16.7 81 81 S 24 39 29.80 1009 7 11 0.02 0.51
11:24 pm 23:24 Cloudy with Light Rain 67 19.4 62 16.7 84 84 S 12 19 29.80 1009 6 10 0.04 1.02
11:35 pm 23:35 Mostly Cloudy with Nearby Thunderstorms 67 19.4 62 16.7 84 84 S 10 17 29.80 1009 9 14 0.04 1.02
11:53 pm 23:53 Cloudy with Light Rain 67 19.4 62 16.7 84 84 SW 10 17 29.80 1009 10 16 0.05 1.27

Powered by AerisWeather